Regional Weather Roundup
Issued by NWS

Home | Current Version | Previous Version | Graphics & Text | Print | Product List | Glossary On
Versions: 1 2 3 4 5 6 7 8 9 10 11 12 13 14 15 16 17 18 19 20 21 22 23 24 25 26 27 28 29 30 31 32 33 34 35 36 37 38 39 40 41 42 43 44 45 46 47 48 49 50
000
ASUS43 KFSD 302010
RWRSD

WEATHER ROUNDUP FOR SOUTH DAKOTA
NATIONAL WEATHER SERVICE SIOUX FALLS SD
300 PM CDT SAT AUG 30 2014

NOTE: "FAIR" INDICATES FEW OR NO CLOUDS BELOW 12,000 FEET WITH NO
SIGNIFICANT WEATHER AND/OR OBSTRUCTIONS TO VISIBILITY.


SDZ001>005-009-010-012>017-302100-
NORTHWEST AND NORTH CENTRAL SOUTH DAKOTA

CITY           SKY/WX    TMP DP  RH WIND       PRES   REMARKS
BUFFALO          N/A     79  58  48 SE20      29.69F
FAITH            N/A     76  60  57 SE22G32   29.77F
MOBRIDGE       SUNNY     73  58  59 S12       29.80F
$$

SDZ012>016-024>037-041>051-057-063-072>074-302100-
SOUTHWEST AND SOUTH CENTRAL SOUTH DAKOTA

CITY           SKY/WX    TMP DP  RH WIND       PRES   REMARKS
RAPID CTY ARPT SUNNY     84  56  38 SE18G24   29.76F
PIERRE         SUNNY     76  58  53 SE14G23   29.81F
CUSTER         SUNNY     81  42  25 SW10G18   29.90F
ELLSWORTH AFB  SUNNY     84  57  39 S18G25    29.74F
PHILIP         SUNNY     82  60  47 SE16G24   29.77F
PINE RIDGE     SUNNY     86  55  34 S17G26    29.80F
WINNER         FAIR      80  60  50 S15G22    29.86F
$$

SDZ004>011-016>023-039-040-302100-
NORTHEAST SOUTH DAKOTA

CITY           SKY/WX    TMP DP  RH WIND       PRES   REMARKS
ABERDEEN       PTSUNNY   68  57  68 SE6       29.87F
WATERTOWN      CLOUDY    67  58  72 S8        29.90F
SISSETON         N/A     69  60  73 CALM      29.87F
$$

SDZ017-020-022-023-036>040-048>070-302100-
SOUTHEAST SOUTH DAKOTA

CITY           SKY/WX    TMP DP  RH WIND       PRES   REMARKS
SIOUX FALLS    PTSUNNY   69  61  75 SW7       29.91F
HURON          PTSUNNY   68  57  68 S6        29.89F
CHAMBERLAIN    SUNNY     74  61  64 SE12      29.86F
MITCHELL       MOSUNNY   69  59  70 CALM      29.91F
YANKTON        SUNNY     70  61  73 NE5       29.91F
$$

ABBREVIATIONS USED IN REMARKS
   TC - TEMPERATURE IN CELSIUS
  WCI - WIND CHILL INDEX
   HX - HEAT INDEX
  VSB - VISIBILITY




USA.gov is the U.S. government's official web portal to all federal, state and local government web resources and services.